Time,TemperatureF,DewpointF,PressureIn,WindDirection,WindDirectionDegrees,WindSpeedMPH,WindSpeedGustMPH,Humidity,HourlyPrecipIn,Conditions,Clouds,dailyrainin,SolarRadiationWatts/m^2,SoftwareType,DateUTC
2013-04-24 00:02:00,36.0,16.0,-100.00,NW,324,3.0,7.0,43,0.00,,,0.00,0.000000,,2013-04-24 06:02:00,
2013-04-24 00:11:00,36.0,16.0,-100.00,NW,324,3.0,7.0,43,0.00,,,0.00,0.000000,,2013-04-24 06:11:00,
2013-04-24 00:21:00,36.0,16.0,-100.00,NW,324,3.0,7.0,43,0.00,,,0.00,0.000000,,2013-04-24 06:21:00,
2013-04-24 00:32:00,36.0,16.0,-100.00,NW,324,3.0,7.0,43,0.00,,,0.00,0.000000,,2013-04-24 06:32:00,
2013-04-24 01:02:00,34.0,14.0,-100.00,NW,311,2.0,6.0,44,0.00,,,0.00,0.000000,,2013-04-24 07:02:00,
2013-04-24 01:11:00,34.0,14.0,-100.00,NW,311,2.0,6.0,44,0.00,,,0.00,0.000000,,2013-04-24 07:11:00,
2013-04-24 01:21:00,34.0,14.0,-100.00,NW,311,2.0,6.0,44,0.00,,,0.00,0.000000,,2013-04-24 07:21:00,
2013-04-24 01:31:00,34.0,14.0,-100.00,NW,311,2.0,6.0,44,0.00,,,0.00,0.000000,,2013-04-24 07:31:00,
2013-04-24 02:01:00,33.0,13.0,-100.00,North,6,2.0,5.0,44,0.00,,,0.00,0.000000,,2013-04-24 08:01:00,
2013-04-24 02:11:00,33.0,13.0,-100.00,North,6,2.0,5.0,44,0.00,,,0.00,0.000000,,2013-04-24 08:11:00,
2013-04-24 02:21:00,33.0,13.0,-100.00,North,6,2.0,5.0,44,0.00,,,0.00,0.000000,,2013-04-24 08:21:00,
2013-04-24 02:33:00,33.0,13.0,-100.00,North,6,2.0,5.0,44,0.00,,,0.00,0.000000,,2013-04-24 08:33:00,
2013-04-24 03:01:00,31.0,15.0,-100.00,NNW,348,3.0,5.0,50,0.00,,,0.00,0.000000,,2013-04-24 09:01:00,
2013-04-24 03:11:00,31.0,15.0,-100.00,NNW,348,3.0,5.0,50,0.00,,,0.00,0.000000,,2013-04-24 09:11:00,
2013-04-24 03:21:00,31.0,15.0,-100.00,NNW,348,3.0,5.0,50,0.00,,,0.00,0.000000,,2013-04-24 09:21:00,
2013-04-24 03:32:00,31.0,15.0,-100.00,NNW,348,3.0,5.0,50,0.00,,,0.00,0.000000,,2013-04-24 09:32:00,
2013-04-24 04:02:00,30.0,15.0,-100.00,North,0,4.0,8.0,54,0.00,,,0.00,0.000000,,2013-04-24 10:02:00,
2013-04-24 04:12:00,30.0,15.0,-100.00,North,0,4.0,8.0,54,0.00,,,0.00,0.000000,,2013-04-24 10:12:00,
2013-04-24 04:22:00,30.0,15.0,-100.00,North,0,4.0,8.0,54,0.00,,,0.00,0.000000,,2013-04-24 10:22:00,
2013-04-24 04:32:00,30.0,15.0,-100.00,North,0,4.0,8.0,54,0.00,,,0.00,0.000000,,2013-04-24 10:32:00,
2013-04-24 05:02:00,28.0,16.0,-100.00,NNW,340,5.0,8.0,60,0.00,,,0.00,0.000000,,2013-04-24 11:02:00,
2013-04-24 05:11:00,28.0,16.0,-100.00,NNW,340,5.0,8.0,60,0.00,,,0.00,0.000000,,2013-04-24 11:11:00,
2013-04-24 05:21:00,28.0,16.0,-100.00,NNW,340,5.0,8.0,60,0.00,,,0.00,0.000000,,2013-04-24 11:21:00,
2013-04-24 05:31:00,28.0,16.0,-100.00,NNW,340,5.0,8.0,60,0.00,,,0.00,0.000000,,2013-04-24 11:31:00,
2013-04-24 06:02:00,26.0,15.0,-100.00,SSW,192,1.0,6.0,63,0.00,,,0.00,0.000000,,2013-04-24 12:02:00,
2013-04-24 06:11:00,26.0,15.0,-100.00,SSW,192,1.0,6.0,63,0.00,,,0.00,0.000000,,2013-04-24 12:11:00,
2013-04-24 06:22:00,26.0,15.0,-100.00,SSW,192,1.0,6.0,63,0.00,,,0.00,0.000000,,2013-04-24 12:22:00,
2013-04-24 06:31:00,26.0,15.0,-100.00,SSW,192,1.0,6.0,63,0.00,,,0.00,0.000000,,2013-04-24 12:31:00,
2013-04-24 07:01:00,27.0,16.0,-100.00,NNW,329,3.0,4.0,62,0.00,,,0.00,0.000000,,2013-04-24 13:01:00,
2013-04-24 07:12:00,27.0,16.0,-100.00,NNW,329,3.0,4.0,62,0.00,,,0.00,0.000000,,2013-04-24 13:12:00,
2013-04-24 07:22:00,27.0,16.0,-100.00,NNW,329,3.0,4.0,62,0.00,,,0.00,0.000000,,2013-04-24 13:22:00,
2013-04-24 07:31:00,27.0,16.0,-100.00,NNW,329,3.0,4.0,62,0.00,,,0.00,0.000000,,2013-04-24 13:31:00,
2013-04-24 09:01:00,32.0,19.0,-100.00,NE,44,0.0,4.0,57,-99.99,,,0.00,185.000000,,2013-04-24 15:01:00,
2013-04-24 09:11:00,32.0,19.0,-100.00,NE,44,0.0,4.0,57,-99.99,,,0.00,185.000000,,2013-04-24 15:11:00,
2013-04-24 09:21:00,32.0,19.0,-100.00,NE,44,0.0,4.0,57,-99.99,,,0.00,185.000000,,2013-04-24 15:21:00,
2013-04-24 09:32:00,32.0,19.0,-100.00,NE,44,0.0,4.0,57,-99.99,,,0.00,185.000000,,2013-04-24 15:32:00,
2013-04-24 10:03:00,36.0,20.0,-100.00,SSW,201,0.0,6.0,51,0.00,,,0.00,376.000000,,2013-04-24 16:03:00,
2013-04-24 10:12:00,36.0,20.0,-100.00,SSW,201,0.0,6.0,51,0.00,,,0.00,376.000000,,2013-04-24 16:12:00,
2013-04-24 10:23:00,36.0,20.0,-100.00,SSW,201,0.0,6.0,51,0.00,,,0.00,376.000000,,2013-04-24 16:23:00,
2013-04-24 10:32:00,36.0,20.0,-100.00,SSW,201,0.0,6.0,51,0.00,,,0.00,376.000000,,2013-04-24 16:32:00,
2013-04-24 11:02:00,39.0,19.0,-100.00,ESE,123,5.0,9.0,44,0.00,,,0.00,562.000000,,2013-04-24 17:02:00,
2013-04-24 11:12:00,39.0,19.0,-100.00,ESE,123,5.0,9.0,44,0.00,,,0.00,562.000000,,2013-04-24 17:12:00,
2013-04-24 11:22:00,39.0,19.0,-100.00,ESE,123,5.0,9.0,44,0.00,,,0.00,562.000000,,2013-04-24 17:22:00,
2013-04-24 11:32:00,39.0,19.0,-100.00,ESE,123,5.0,9.0,44,0.00,,,0.00,562.000000,,2013-04-24 17:32:00,
2013-04-24 12:02:00,46.0,19.0,-100.00,West,278,2.0,8.0,33,0.00,,,0.00,720.000000,,2013-04-24 18:02:00,
2013-04-24 12:12:00,46.0,19.0,-100.00,West,278,2.0,8.0,33,0.00,,,0.00,720.000000,,2013-04-24 18:12:00,
2013-04-24 12:21:00,46.0,19.0,-100.00,West,278,2.0,8.0,33,0.00,,,0.00,720.000000,,2013-04-24 18:21:00,
2013-04-24 12:32:00,46.0,19.0,-100.00,West,278,2.0,8.0,33,0.00,,,0.00,720.000000,,2013-04-24 18:32:00,
2013-04-24 13:01:00,49.0,16.0,-100.00,ENE,77,4.0,11.0,26,0.00,,,0.00,834.000000,,2013-04-24 19:01:00,
2013-04-24 13:11:00,49.0,16.0,-100.00,ENE,77,4.0,11.0,26,0.00,,,0.00,834.000000,,2013-04-24 19:11:00,
2013-04-24 13:21:00,49.0,16.0,-100.00,ENE,77,4.0,11.0,26,0.00,,,0.00,834.000000,,2013-04-24 19:21:00,
2013-04-24 13:31:00,49.0,16.0,-100.00,ENE,77,4.0,11.0,26,0.00,,,0.00,834.000000,,2013-04-24 19:31:00,
2013-04-24 14:01:00,54.0,16.0,-100.00,SE,141,3.0,11.0,22,0.00,,,0.00,898.000000,,2013-04-24 20:01:00,
2013-04-24 14:11:00,54.0,16.0,-100.00,SE,141,3.0,11.0,22,0.00,,,0.00,898.000000,,2013-04-24 20:11:00,
2013-04-24 14:21:00,54.0,16.0,-100.00,SE,141,3.0,11.0,22,0.00,,,0.00,898.000000,,2013-04-24 20:21:00,
2013-04-24 14:32:00,54.0,16.0,-100.00,SE,141,3.0,11.0,22,0.00,,,0.00,898.000000,,2013-04-24 20:32:00,
2013-04-24 15:02:00,54.0,6.0,-100.00,West,272,9.0,18.0,14,0.00,,,0.00,913.000000,,2013-04-24 21:02:00,
2013-04-24 15:11:00,54.0,6.0,-100.00,West,272,9.0,18.0,14,0.00,,,0.00,913.000000,,2013-04-24 21:11:00,
2013-04-24 15:21:00,54.0,6.0,-100.00,West,272,9.0,18.0,14,0.00,,,0.00,913.000000,,2013-04-24 21:21:00,
2013-04-24 15:32:00,54.0,6.0,-100.00,West,272,9.0,18.0,14,0.00,,,0.00,913.000000,,2013-04-24 21:32:00,
2013-04-24 16:03:00,56.0,7.0,-100.00,WSW,246,8.0,19.0,14,0.00,,,0.00,870.000000,,2013-04-24 22:03:00,
2013-04-24 16:12:00,56.0,7.0,-100.00,WSW,246,8.0,19.0,14,0.00,,,0.00,870.000000,,2013-04-24 22:12:00,
2013-04-24 16:22:00,56.0,7.0,-100.00,WSW,246,8.0,19.0,14,0.00,,,0.00,870.000000,,2013-04-24 22:22:00,
2013-04-24 16:32:00,56.0,7.0,-100.00,WSW,246,8.0,19.0,14,0.00,,,0.00,870.000000,,2013-04-24 22:32:00,
2013-04-24 17:02:00,57.0,13.0,-100.00,WSW,255,8.0,19.0,17,0.00,,,0.00,764.000000,,2013-04-24 23:02:00,
2013-04-24 17:12:00,57.0,13.0,-100.00,WSW,255,8.0,19.0,17,0.00,,,0.00,764.000000,,2013-04-24 23:12:00,
2013-04-24 17:21:00,57.0,13.0,-100.00,WSW,255,8.0,19.0,17,0.00,,,0.00,764.000000,,2013-04-24 23:21:00,
2013-04-24 17:32:00,57.0,13.0,-100.00,WSW,255,8.0,19.0,17,0.00,,,0.00,764.000000,,2013-04-24 23:32:00,
2013-04-24 18:01:00,57.0,15.0,-100.00,SSW,211,9.0,16.0,19,0.00,,,0.00,617.000000,,2013-04-25 00:01:00,
2013-04-24 18:12:00,57.0,15.0,-100.00,SSW,211,9.0,16.0,19,0.00,,,0.00,617.000000,,2013-04-25 00:12:00,
2013-04-24 18:22:00,57.0,15.0,-100.00,SSW,211,9.0,16.0,19,0.00,,,0.00,617.000000,,2013-04-25 00:22:00,
2013-04-24 18:32:00,57.0,15.0,-100.00,SSW,211,9.0,16.0,19,0.00,,,0.00,617.000000,,2013-04-25 00:32:00,
2013-04-24 19:01:00,56.0,12.0,-100.00,WNW,284,8.0,20.0,17,0.00,,,0.00,440.000000,,2013-04-25 01:01:00,
2013-04-24 19:11:00,56.0,12.0,-100.00,WNW,284,8.0,20.0,17,0.00,,,0.00,440.000000,,2013-04-25 01:11:00,
2013-04-24 19:22:00,56.0,12.0,-100.00,WNW,284,8.0,20.0,17,0.00,,,0.00,440.000000,,2013-04-25 01:22:00,
2013-04-24 19:32:00,56.0,12.0,-100.00,WNW,284,8.0,20.0,17,0.00,,,0.00,440.000000,,2013-04-25 01:32:00,
2013-04-24 20:02:00,54.0,9.0,-100.00,West,268,10.0,18.0,16,0.00,,,0.00,247.000000,,2013-04-25 02:02:00,
2013-04-24 20:11:00,54.0,9.0,-100.00,West,268,10.0,18.0,16,0.00,,,0.00,247.000000,,2013-04-25 02:11:00,
2013-04-24 20:22:00,54.0,9.0,-100.00,West,268,10.0,18.0,16,0.00,,,0.00,247.000000,,2013-04-25 02:22:00,
2013-04-24 20:32:00,54.0,9.0,-100.00,West,268,10.0,18.0,16,0.00,,,0.00,247.000000,,2013-04-25 02:32:00,
2013-04-24 21:02:00,49.0,10.0,-100.00,WSW,238,9.0,15.0,20,0.00,,,0.00,46.000000,,2013-04-25 03:02:00,
2013-04-24 21:11:00,49.0,10.0,-100.00,WSW,238,9.0,15.0,20,0.00,,,0.00,46.000000,,2013-04-25 03:11:00,
2013-04-24 21:22:00,49.0,10.0,-100.00,WSW,238,9.0,15.0,20,0.00,,,0.00,46.000000,,2013-04-25 03:22:00,
2013-04-24 21:32:00,49.0,10.0,-100.00,WSW,238,9.0,15.0,20,0.00,,,0.00,46.000000,,2013-04-25 03:32:00,
2013-04-24 22:03:00,46.0,12.0,-100.00,SE,130,3.0,14.0,25,0.00,,,0.00,1.000000,,2013-04-25 04:03:00,
2013-04-24 22:12:00,46.0,12.0,-100.00,SE,130,3.0,14.0,25,0.00,,,0.00,1.000000,,2013-04-25 04:12:00,
2013-04-24 22:22:00,46.0,12.0,-100.00,SE,130,3.0,14.0,25,0.00,,,0.00,1.000000,,2013-04-25 04:22:00,
2013-04-24 22:32:00,46.0,12.0,-100.00,SE,130,3.0,14.0,25,0.00,,,0.00,1.000000,,2013-04-25 04:32:00,
2013-04-24 23:02:00,43.0,14.0,-100.00,ESE,108,4.0,8.0,31,0.00,,,0.00,0.000000,,2013-04-25 05:02:00,
2013-04-24 23:12:00,43.0,14.0,-100.00,ESE,108,4.0,8.0,31,0.00,,,0.00,0.000000,,2013-04-25 05:12:00,
2013-04-24 23:21:00,43.0,14.0,-100.00,ESE,108,4.0,8.0,31,0.00,,,0.00,0.000000,,2013-04-25 05:21:00,
2013-04-24 23:31:00,43.0,14.0,-100.00,ESE,108,4.0,8.0,31,0.00,,,0.00,0.000000,,2013-04-25 05:31:00,